SCP
0 0 0 0 0 0 0 0 0 0 0 0 0 0 0 0 0 0 0 0 0 0
0 0 0 0 0 0 0 0 0 0 0 0 0 0 0 0 0 0 0 0 0 0
0 0 0 0 0 0 0 0 0 0 0 0 0 0 0 0 0 0 0 0 0 0
0 0 0 0 0 0 0 0 0 0 0 0 0 0 0 0 0 0 0 0 0 0
0 0 0 0 0 0 0 0 0 0 0 0 0 0 0 0 0 0 0 0 0 0
0 0 0 0 0 0 0 0 0 0 0 0 0 0 0 0 0 0 0 0 0 0
0 0 0 -0 0 0 0 0 0 0 0 0 0 0 0 0 0 0 0 0 0 0
0 0 0 0 -0 0 0 0 0 0 0 0 0 0 0 0 0 0 0 0 0 0
0 0 0 0 0 0 0 0 0 0 0 0 0 0 0 0 0 0 0 0 0 0
0 0 0 0 0 0 0 0 0 0 0 0 0 0 0 0 0 0 0 0 0 0
-0 0 0 0 0 0 0 0 0 0 0 0 0 0 0 0 0 0 0 0 0 0
0 0 0 0 0 0 0 0 0 0 0 0 0 0 0 0 0 0 0 0 0 0
-0 0 0 0 0 0 0 0 0 0 0 0 0 0 0 0 0 0 0 0 0 0
-0 -0 -0 0 0 0 0 0 0 0 0 0 0 0 0 0 0 0 0 0 0 0
Wind_Speed_500mb
45 52 56 54 55 59 52 52 54 54 58 50 43 39 37 36 35 34 33 31 33 35
38 44 48 49 53 54 55 53 51 55 59 52 46 41 38 37 35 34 33 31 33 34
33 42 43 45 47 49 52 54 53 54 55 54 48 43 40 37 36 33 31 31 32 34
27 34 40 44 41 45 48 49 51 56 52 56 51 46 42 38 35 32 29 29 30 33
27 31 37 40 42 43 45 48 50 56 59 59 54 48 44 38 32 30 27 26 30 33
31 31 39 42 41 44 44 47 50 55 58 60 56 51 45 38 33 29 25 24 26 30
36 33 35 43 47 46 43 46 48 51 54 58 57 51 46 42 38 31 26 24 24 25
41 39 38 38 46 51 52 47 46 50 54 57 59 55 50 46 42 36 32 29 27 26
49 45 41 38 41 50 54 49 49 51 55 56 60 58 52 48 46 42 38 33 31 30
53 50 47 41 40 47 52 52 50 53 57 58 60 60 56 52 49 47 43 39 37 34
56 54 52 48 41 45 51 57 54 56 57 60 63 62 59 56 53 51 46 43 40 36
59 60 59 54 47 40 52 58 61 59 61 64 66 65 62 60 57 55 50 47 45 41
58 62 62 57 51 47 47 58 63 64 65 66 68 67 66 64 61 59 55 52 50 49
58 64 64 60 54 50 46 53 62 67 69 71 72 68 70 68 63 61 59 59 56 53
Wind_Direction_500mb
264 264 265 266 263 261 255 242 249 248 250 248 248 251 256 262 266 268 264 255 240 231
260 262 267 270 266 260 256 251 248 254 249 249 249 250 255 262 266 267 263 251 237 230
271 260 257 260 265 264 262 254 244 250 248 248 247 248 252 258 263 264 259 247 236 228
278 264 256 253 254 262 267 258 248 247 248 248 245 246 248 253 258 260 254 243 231 219
300 271 258 250 251 253 259 260 251 246 244 242 241 242 244 249 255 255 248 237 223 211
322 286 264 257 248 249 251 256 254 247 243 240 237 238 240 243 243 245 237 232 221 210
322 311 280 259 251 244 243 250 252 248 242 240 236 235 236 237 236 233 224 216 211 208
323 313 302 274 250 246 240 242 246 246 242 239 235 233 232 232 230 229 223 218 213 206
323 317 309 292 259 242 241 240 237 242 240 238 235 232 230 229 229 227 225 224 217 209
325 319 312 301 274 246 240 239 238 234 239 236 234 232 230 228 226 227 227 223 219 213
325 322 313 308 291 258 238 237 237 234 234 236 232 230 229 228 225 225 224 223 220 214
325 324 317 308 300 276 245 236 236 234 232 233 231 229 227 226 224 224 222 219 216 211
320 320 318 308 303 285 259 240 235 236 233 231 232 230 227 226 223 223 219 217 214 211
315 317 316 309 301 286 271 249 236 235 233 231 230 229 227 226 224 223 220 218 215 211
Wind_Speed_850mb
45 52 56 54 55 59 52 52 54 54 58 50 43 39 37 36 35 34 33 31 33 35
38 44 48 49 53 54 55 53 51 55 59 52 46 41 38 37 35 34 33 31 33 34
33 42 43 45 47 49 52 54 53 54 55 54 48 43 40 37 36 33 31 31 32 34
27 34 40 44 41 45 48 49 51 56 52 56 51 46 42 38 35 32 29 29 30 33
27 31 37 40 42 43 45 48 50 56 59 59 54 48 44 38 32 30 27 26 30 33
31 31 39 42 41 44 44 47 50 55 58 60 56 51 45 38 33 29 25 24 26 30
36 33 35 43 47 46 43 46 48 51 54 58 57 51 46 42 38 31 26 24 24 25
41 39 38 38 46 51 52 47 46 50 54 57 59 55 50 46 42 36 32 29 27 26
49 45 41 38 41 50 54 49 49 51 55 56 60 58 52 48 46 42 38 33 31 30
53 50 47 41 40 47 52 52 50 53 57 58 60 60 56 52 49 47 43 39 37 34
56 54 52 48 41 45 51 57 54 56 57 60 63 62 59 56 53 51 46 43 40 36
59 60 59 54 47 40 52 58 61 59 61 64 66 65 62 60 57 55 50 47 45 41
58 62 62 57 51 47 47 58 63 64 65 66 68 67 66 64 61 59 55 52 50 49
58 64 64 60 54 50 46 53 62 67 69 71 72 68 70 68 63 61 59 59 56 53
Wind_Direction_850mb
264 264 265 266 263 261 255 242 249 248 250 248 248 251 256 262 266 268 264 255 240 231
260 262 267 270 266 260 256 251 248 254 249 249 249 250 255 262 266 267 263 251 237 230
271 260 257 260 265 264 262 254 244 250 248 248 247 248 252 258 263 264 259 247 236 228
278 264 256 253 254 262 267 258 248 247 248 248 245 246 248 253 258 260 254 243 231 219
300 271 258 250 251 253 259 260 251 246 244 242 241 242 244 249 255 255 248 237 223 211
322 286 264 257 248 249 251 256 254 247 243 240 237 238 240 243 243 245 237 232 221 210
322 311 280 259 251 244 243 250 252 248 242 240 236 235 236 237 236 233 224 216 211 208
323 313 302 274 250 246 240 242 246 246 242 239 235 233 232 232 230 229 223 218 213 206
323 317 309 292 259 242 241 240 237 242 240 238 235 232 230 229 229 227 225 224 217 209
325 319 312 301 274 246 240 239 238 234 239 236 234 232 230 228 226 227 227 223 219 213
325 322 313 308 291 258 238 237 237 234 234 236 232 230 229 228 225 225 224 223 220 214
325 324 317 308 300 276 245 236 236 234 232 233 231 229 227 226 224 224 222 219 216 211
320 320 318 308 303 285 259 240 235 236 233 231 232 230 227 226 223 223 219 217 214 211
315 317 316 309 301 286 271 249 236 235 233 231 230 229 227 226 224 223 220 218 215 211